Location: Althorst
(53.6379°N, 10.7715°E)
Time: 23:42:25
(UTC+00:00)

NOSS 0 Rocket - Pass Details

Date: 10 December 2019
Orbit: 934 x 956 km, 70.0° (Epoch: 18 January)

Event Time Altitude Azimuth Distance (km) Brightness Sun altitude
Rises 16:28:50 0° 194° (SSW) 3,603 7.5 -12.5°
Reaches altitude 10° 16:31:23 10° 190° (S) 2,666 6.7 -12.9°
Maximum altitude 16:37:23 55° 115° (ESE) 1,141 4.1 -13.7°
Enters shadow 16:42:17 16° 43° (NE) 2,278 5.4 -14.4°
